OE4EXE Weather Reports


Display with metric or nautical units.
time (UTC)temp
F
wind
direction
speed
MPH
gust
MPH
rain 1hr
in
rain 24hr
in
rain mn
in
humidity
%
barometer
mb
20260506002603 58 226 7.0 16.0 0.00 0.00 0.00 68 1008.1
20260506002403 58 225 7.0 16.0 0.00 0.00 0.00 68 1008.1
20260506002203 58 230 8.0 16.0 0.00 0.00 0.00 68 1008.2
20260506002003 58 229 8.0 16.0 0.00 0.00 0.00 68 1008.3
20260506001803 58 233 8.0 16.0 0.00 0.00 0.00 68 1008.0
20260506001003 58 234 8.0 18.0 0.00 0.00 0.00 67 1008.0
20260506000803 58 233 8.0 18.0 0.00 0.00 0.00 67 1007.9
20260506000603 58 233 9.0 18.0 0.00 0.00 0.00 67 1007.9
20260506000403 59 233 9.0 18.0 0.00 0.00 0.00 67 1008.1
20260506000204 59 233 9.0 18.0 0.00 0.00 0.00 67 1007.9
20260506000003 58 227 9.0 18.0 0.00 0.00 0.00 67 1008.0
20260505235803 59 222 9.0 14.0 0.00 0.00 0.00 67 1008.0
20260505235603 59 218 9.0 17.0 0.00 0.00 0.00 67 1008.1
20260505235403 59 216 9.0 18.0 0.00 0.00 0.00 67 1008.0
20260505235203 59 218 9.0 18.0 0.00 0.00 0.00 66 1007.9
20260505235003 59 227 9.0 18.0 0.00 0.00 0.00 66 1007.9
20260505234603 59 225 10.0 18.0 0.00 0.00 0.00 66 1008.0
20260505234403 59 223 9.0 18.0 0.00 0.00 0.00 66 1008.0
20260505234203 59 220 9.0 17.0 0.00 0.00 0.00 66 1007.9
20260505234003 59 214 9.0 17.0 0.00 0.00 0.00 66 1007.8
20260505233803 59 209 9.0 17.0 0.00 0.00 0.00 66 1007.8
20260505233603 59 211 8.0 16.0 0.00 0.00 0.00 66 1008.2
20260505233403 59 212 8.0 16.0 0.00 0.00 0.00 66 1008.0
20260505233203 59 211 9.0 16.0 0.00 0.00 0.00 65 1008.0
20260505233003 59 213 9.0 16.0 0.00 0.00 0.00 65 1008.0
20260505232603 59 215 10.0 18.0 0.00 0.00 0.00 65 1008.0
20260505232403 59 217 10.0 18.0 0.00 0.00 0.00 65 1007.9
20260505232003 59 214 9.0 18.0 0.00 0.00 0.00 65 1007.9
20260505231803 60 211 9.0 18.0 0.00 0.00 0.00 64 1008.0
20260505231603 60 215 9.0 18.0 0.00 0.00 0.00 64 1007.9
20260505231403 60 215 8.0 18.0 0.00 0.00 0.00 64 1007.8
20260505231003 60 223 10.0 19.0 0.00 0.00 0.00 64 1008.1
20260505230803 60 224 11.0 19.0 0.00 0.00 0.00 64 1008.2
20260505230603 60 223 11.0 19.0 0.00 0.00 0.00 64 1007.9
20260505230403 60 225 11.0 19.0 0.00 0.00 0.00 63 1007.9
20260505230203 60 218 11.0 19.0 0.00 0.00 0.00 64 1008.0
20260505230003 60 220 10.0 21.0 0.00 0.00 0.00 64 1008.1
20260505225803 60 218 9.0 21.0 0.00 0.00 0.00 63 1007.9
20260505225603 60 218 10.0 21.0 0.00 0.00 0.00 63 1007.9
20260505225403 60 215 10.0 21.0 0.00 0.00 0.00 63 1008.0
20260505225203 60 223 9.0 21.0 0.00 0.00 0.00 63 1008.0
20260505225003 60 220 9.0 21.0 0.00 0.00 0.00 63 1007.8
20260505224803 60 225 9.0 19.0 0.00 0.00 0.00 63 1008.2
20260505224603 60 224 9.0 19.0 0.00 0.00 0.00 63 1008.0
20260505224403 60 220 9.0 19.0 0.00 0.00 0.00 62 1008.0
20260505224203 60 217 10.0 19.0 0.00 0.00 0.00 62 1008.0
20260505224003 60 225 10.0 19.0 0.00 0.00 0.00 62 1008.0
20260505223803 60 221 10.0 18.0 0.00 0.00 0.00 62 1008.0
20260505223603 60 227 11.0 19.0 0.00 0.00 0.00 62 1007.8
20260505223403 60 236 11.0 20.0 0.00 0.00 0.00 62 1008.0
20260505223203 60 233 11.0 21.0 0.00 0.00 0.00 62 1007.8
20260505222603 61 233 10.0 21.0 0.00 0.00 0.00 61 1008.0
20260505222403 61 233 10.0 21.0 0.00 0.00 0.00 61 1007.9
20260505222003 61 235 9.0 20.0 0.00 0.00 0.00 61 1007.7
20260505221803 61 231 9.0 20.0 0.00 0.00 0.00 61 1007.8
20260505221603 61 230 11.0 20.0 0.00 0.00 0.00 61 1007.7
20260505221203 61 233 12.0 19.0 0.00 0.00 0.00 61 1007.9
20260505221003 61 230 12.0 19.0 0.00 0.00 0.00 60 1007.7
20260505220803 61 231 11.0 19.0 0.00 0.00 0.00 60 1007.7
20260505220603 61 233 11.0 20.0 0.00 0.00 0.00 60 1007.5
20260505220403 61 233 10.0 20.0 0.00 0.00 0.00 60 1007.7
20260505220203 61 232 9.0 20.0 0.00 0.00 0.00 60 1007.7
20260505220012 61 237 9.0 21.0 0.00 0.00 0.00 60 1007.6
20260505215603 61 237 9.0 21.0 0.00 0.00 0.00 60 1007.5
20260505215403 61 239 11.0 21.0 0.00 0.00 0.00 60 1007.4
20260505215203 61 232 11.0 21.0 0.00 0.00 0.00 59 1007.5
20260505215003 61 223 11.0 21.0 0.00 0.00 0.00 59 1007.5
20260505214803 61 221 12.0 19.0 0.00 0.00 0.00 59 1007.6
20260505214403 62 217 12.0 21.0 0.00 0.00 0.00 59 1007.4
20260505214203 62 218 12.0 21.0 0.00 0.00 0.00 59 1007.4
20260505213803 62 221 13.0 25.0 0.00 0.00 0.00 59 1007.5
20260505213603 62 222 14.0 25.0 0.00 0.00 0.00 58 1007.7
20260505213403 62 223 13.0 25.0 0.00 0.00 0.00 58 1007.7
20260505213203 62 225 13.0 25.0 0.00 0.00 0.00 58 1007.5
20260505213003 62 231 14.0 25.0 0.00 0.00 0.00 58 1007.5
20260505212803 62 226 14.0 25.0 0.00 0.00 0.00 58 1007.4
20260505212603 62 221 15.0 24.0 0.00 0.00 0.00 58 1007.3
20260505212403 62 214 15.0 24.0 0.00 0.00 0.00 58 1007.3
20260505212203 62 212 14.0 24.0 0.00 0.00 0.00 57 1007.3
20260505212003 62 211 15.0 24.0 0.00 0.00 0.00 57 1007.1
20260505211803 62 208 14.0 24.0 0.00 0.00 0.00 57 1007.2
20260505211603 62 211 13.0 24.0 0.00 0.00 0.00 57 1007.2
20260505211403 62 219 12.0 24.0 0.00 0.00 0.00 57 1007.4
20260505211203 62 223 12.0 28.0 0.00 0.00 0.00 57 1007.5
20260505211003 62 227 12.0 28.0 0.00 0.00 0.00 56 1007.4
20260505210203 63 225 13.0 28.0 0.00 0.00 0.00 55 1007.3
20260505210003 63 215 14.0 25.0 0.00 0.00 0.00 55 1007.4
20260505205803 63 215 14.0 25.0 0.00 0.00 0.00 55 1007.5
20260505205603 63 215 14.0 25.0 0.00 0.00 0.00 55 1007.3
20260505205203 63 213 12.0 25.0 0.00 0.00 0.00 54 1007.4
20260505204803 63 213 10.0 23.0 0.00 0.00 0.00 55 1007.4
20260505204603 63 215 9.0 21.0 0.00 0.00 0.00 54 1007.5
20260505204203 63 218 12.0 21.0 0.00 0.00 0.00 54 1007.6
20260505204003 63 219 12.0 21.0 0.00 0.00 0.00 54 1007.6
20260505203803 63 219 12.0 21.0 0.00 0.00 0.00 53 1007.8
20260505203603 64 227 12.0 21.0 0.00 0.00 0.00 53 1007.7
20260505203403 63 227 12.0 23.0 0.00 0.00 0.00 53 1007.6
20260505202803 64 230 11.0 23.0 0.00 0.00 0.00 53 1007.4
20260505202403 64 225 13.0 24.0 0.00 0.00 0.00 53 1007.6
20260505201803 64 226 14.0 24.0 0.00 0.00 0.00 52 1007.6
20260505201603 64 221 13.0 24.0 0.00 0.00 0.00 52 1007.5
20260505201403 64 227 13.0 24.0 0.00 0.00 0.00 52 1007.5
20260505201203 64 227 13.0 25.0 0.00 0.00 0.00 52 1007.6
20260505201003 64 229 13.0 25.0 0.00 0.00 0.00 51 1007.6
20260505200803 64 231 13.0 25.0 0.00 0.00 0.00 51 1007.6
20260505200603 64 237 13.0 25.0 0.00 0.00 0.00 51 1007.5
20260505200403 64 237 12.0 25.0 0.00 0.00 0.00 51 1007.7
20260505195803 65 242 11.0 23.0 0.00 0.00 0.00 51 1007.6
20260505195603 65 238 11.0 23.0 0.00 0.00 0.00 51 1007.5
20260505195403 65 234 11.0 23.0 0.00 0.00 0.00 50 1007.6
20260505195003 65 225 13.0 23.0 0.00 0.00 0.00 50 1007.5
20260505194803 65 227 13.0 23.0 0.00 0.00 0.00 50 1007.7
20260505194603 65 224 14.0 25.0 0.00 0.00 0.00 50 1007.8
20260505194203 65 226 16.0 27.0 0.00 0.00 0.00 49 1007.4
20260505194003 65 220 15.0 31.0 0.00 0.00 0.00 49 1007.5
20260505193603 65 218 14.0 31.0 0.00 0.00 0.00 48 1007.4
20260505193403 65 214 14.0 31.0 0.00 0.00 0.00 48 1007.4
20260505193203 66 217 12.0 31.0 0.00 0.00 0.00 48 1007.7
20260505193003 66 222 12.0 31.0 0.00 0.00 0.00 48 1007.4
20260505192803 66 224 12.0 23.0 0.00 0.00 0.00 48 1007.5
20260505192603 66 228 13.0 23.0 0.00 0.00 0.00 48 1007.4
20260505192203 66 220 14.0 23.0 0.00 0.00 0.00 48 1007.6
20260505192003 66 221 13.0 23.0 0.00 0.00 0.00 48 1007.6
20260505191803 66 214 13.0 22.0 0.00 0.00 0.00 47 1007.5
20260505191603 66 210 12.0 22.0 0.00 0.00 0.00 47 1007.7
20260505191403 66 215 12.0 22.0 0.00 0.00 0.00 47 1007.7
20260505191203 66 216 12.0 21.0 0.00 0.00 0.00 48 1007.6
20260505190803 66 219 13.0 28.0 0.00 0.00 0.00 47 1007.7
20260505190603 66 226 13.0 28.0 0.00 0.00 0.00 47 1007.5
20260505190403 67 226 13.0 28.0 0.00 0.00 0.00 47 1007.7
20260505190204 67 228 13.0 28.0 0.00 0.00 0.00 47 1007.5
20260505190003 67 227 13.0 28.0 0.00 0.00 0.00 46 1007.6
20260505185803 67 230 13.0 28.0 0.00 0.00 0.00 46 1007.6
20260505185603 67 228 12.0 22.0 0.00 0.00 0.00 46 1007.4
20260505185403 67 226 11.0 22.0 0.00 0.00 0.00 46 1007.5
20260505185203 67 222 11.0 22.0 0.00 0.00 0.00 46 1007.6
20260505184803 67 219 10.0 21.0 0.00 0.00 0.00 47 1007.6
20260505184603 67 214 11.0 21.0 0.00 0.00 0.00 47 1007.6
20260505184403 67 219 12.0 22.0 0.00 0.00 0.00 47 1007.4
20260505184003 67 215 13.0 24.0 0.00 0.00 0.00 47 1007.5
20260505183803 67 217 13.0 24.0 0.00 0.00 0.00 47 1007.4
20260505183603 67 216 14.0 24.0 0.00 0.00 0.00 46 1007.5
20260505183403 67 213 14.0 24.0 0.00 0.00 0.00 46 1007.5
20260505183203 67 216 14.0 24.0 0.00 0.00 0.00 47 1007.4
20260505183003 67 215 15.0 23.0 0.00 0.00 0.00 47 1007.5
20260505182803 67 212 14.0 23.0 0.00 0.00 0.00 46 1007.5
20260505182603 67 213 14.0 23.0 0.00 0.00 0.00 46 1007.4
20260505182403 67 217 14.0 23.0 0.00 0.00 0.00 46 1007.6
20260505182003 67 222 13.0 24.0 0.00 0.00 0.00 46 1007.4
20260505181803 68 221 12.0 24.0 0.00 0.00 0.00 46 1007.5
20260505181603 68 223 12.0 24.0 0.00 0.00 0.00 46 1007.5
20260505181203 68 228 13.0 24.0 0.00 0.00 0.00 46 1007.6
20260505181003 68 225 12.0 24.0 0.00 0.00 0.00 46 1007.5
20260505180803 68 228 12.0 23.0 0.00 0.00 0.00 46 1007.3
20260505180403 68 231 11.0 23.0 0.00 0.00 0.00 46 1007.5
20260505180203 68 230 10.0 23.0 0.00 0.00 0.00 46 1007.4
20260505180003 68 228 11.0 23.0 0.00 0.00 0.00 46 1007.5
20260505175803 68 229 12.0 23.0 0.00 0.00 0.00 46 1007.5
20260505175603 68 223 11.0 23.0 0.00 0.00 0.00 46 1007.4
20260505175203 68 225 12.0 23.0 0.00 0.00 0.00 46 1007.6
20260505175003 68 228 12.0 25.0 0.00 0.00 0.00 46 1007.4
20260505174803 68 226 13.0 25.0 0.00 0.00 0.00 46 1007.6
20260505174603 68 231 13.0 25.0 0.00 0.00 0.00 46 1007.8
20260505174203 68 225 14.0 25.0 0.00 0.00 0.00 45 1007.6
20260505174003 68 229 14.0 25.0 0.00 0.00 0.00 45 1007.6
20260505173403 69 230 13.0 23.0 0.00 0.00 0.00 45 1007.5
20260505173203 69 238 14.0 23.0 0.00 0.00 0.00 44 1007.4
20260505173003 69 237 13.0 23.0 0.00 0.00 0.00 44 1007.7
20260505172803 69 247 12.0 22.0 0.00 0.00 0.00 44 1007.7
20260505172403 69 249 12.0 21.0 0.00 0.00 0.00 44 1007.7
20260505172203 70 245 11.0 21.0 0.00 0.00 0.00 44 1007.7
20260505171803 70 234 12.0 27.0 0.00 0.00 0.00 43 1007.8
20260505171603 70 234 12.0 27.0 0.00 0.00 0.00 43 1007.7
20260505171403 70 230 12.0 27.0 0.00 0.00 0.00 43 1007.6
20260505171203 70 233 12.0 27.0 0.00 0.00 0.00 43 1007.9
20260505170803 70 234 12.0 27.0 0.00 0.00 0.00 42 1007.6
20260505170603 70 227 12.0 23.0 0.00 0.00 0.00 42 1007.8
20260505170403 70 223 13.0 23.0 0.00 0.00 0.00 42 1007.9
20260505170203 70 222 14.0 23.0 0.00 0.00 0.00 42 1007.8
20260505165803 70 221 15.0 24.0 0.00 0.00 0.00 41 1007.6
20260505165403 70 218 15.0 26.0 0.00 0.00 0.00 41 1007.8
20260505165203 70 218 15.0 26.0 0.00 0.00 0.00 41 1007.7
20260505165003 70 217 14.0 26.0 0.00 0.00 0.00 41 1007.6
20260505164603 70 218 15.0 26.0 0.00 0.00 0.00 40 1007.7
20260505164003 71 230 14.0 23.0 0.00 0.00 0.00 39 1007.6
20260505163803 70 228 14.0 25.0 0.00 0.00 0.00 39 1007.8
20260505163603 71 224 14.0 25.0 0.00 0.00 0.00 39 1008.0
20260505163403 71 223 14.0 25.0 0.00 0.00 0.00 39 1008.0
20260505163203 71 222 14.0 25.0 0.00 0.00 0.00 39 1007.9
20260505163003 71 223 13.0 25.0 0.00 0.00 0.00 39 1008.1
20260505162803 71 227 13.0 27.0 0.00 0.00 0.00 38 1008.0
20260505162603 71 230 13.0 27.0 0.00 0.00 0.00 38 1008.0
20260505162403 71 227 13.0 27.0 0.00 0.00 0.00 38 1007.9
20260505162003 71 227 14.0 27.0 0.00 0.00 0.00 37 1008.2
20260505161603 71 227 16.0 27.0 0.00 0.00 0.00 37 1007.9
20260505161403 71 231 16.0 31.0 0.00 0.00 0.00 36 1008.3
20260505161203 71 227 16.0 31.0 0.00 0.00 0.00 36 1008.0
20260505161003 71 224 16.0 31.0 0.00 0.00 0.00 36 1008.2
20260505160803 71 220 16.0 31.0 0.00 0.00 0.00 36 1008.3
20260505160603 71 218 16.0 31.0 0.00 0.00 0.00 36 1008.3
20260505160403 71 213 16.0 31.0 0.00 0.00 0.00 36 1008.2
20260505160203 71 213 17.0 31.0 0.00 0.00 0.00 36 1008.5
20260505153203 72 220 16.0 31.0 0.00 0.00 0.00 38 1008.3
20260505153003 72 215 16.0 31.0 0.00 0.00 0.00 38 1008.4
20260505152803 72 213 16.0 31.0 0.00 0.00 0.00 38 1008.3
20260505152603 72 214 16.0 31.0 0.00 0.00 0.00 38 1008.4
20260505152403 72 211 16.0 31.0 0.00 0.00 0.00 38 1008.4
20260505152203 72 213 16.0 28.0 0.00 0.00 0.00 38 1008.4
20260505152003 72 223 15.0 29.0 0.00 0.00 0.00 38 1008.4
20260505151603 72 230 16.0 29.0 0.00 0.00 0.00 38 1008.6
20260505151403 72 239 16.0 29.0 0.00 0.00 0.00 38 1008.5
20260505151203 72 239 16.0 29.0 0.00 0.00 0.00 38 1008.4
20260505151003 72 237 16.0 29.0 0.00 0.00 0.00 37 1008.7
20260505150803 72 238 16.0 36.0 0.00 0.00 0.00 37 1008.6
20260505150603 72 230 16.0 36.0 0.00 0.00 0.00 37 1008.5
20260505150403 72 223 16.0 36.0 0.00 0.00 0.00 37 1008.5
20260505140603 76 222 19.0 33.0 0.00 0.00 0.00 34 1008.4
20260505140403 76 228 18.0 33.0 0.00 0.00 0.00 34 1008.6
20260505140203 76 234 19.0 32.0 0.00 0.00 0.00 33 1008.4
20260505130203 79 221 16.0 31.0 0.00 0.00 0.00 31 1008.3
20260505125003 79 226 15.0 31.0 0.00 0.00 0.00 31 1008.3
20260505124403 79 222 15.0 28.0 0.00 0.00 0.00 30 1008.4
20260505124203 79 232 15.0 28.0 0.00 0.00 0.00 30 1008.5
20260505123803 79 242 15.0 28.0 0.00 0.00 0.00 30 1008.6
20260505123603 79 237 16.0 28.0 0.00 0.00 0.00 30 1008.6
20260505123203 79 227 16.0 28.0 0.00 0.00 0.00 30 1008.6
20260505122803 79 224 15.0 28.0 0.00 0.00 0.00 30 1008.7
20260505122603 79 228 16.0 28.0 0.00 0.00 0.00 30 1008.7
20260505122403 79 227 15.0 30.0 0.00 0.00 0.00 29 1008.7
20260505122203 79 221 15.0 30.0 0.00 0.00 0.00 30 1008.8
20260505122003 79 222 15.0 30.0 0.00 0.00 0.00 30 1008.6
20260505121803 79 225 15.0 30.0 0.00 0.00 0.00 30 1008.8
20260505121403 79 224 14.0 30.0 0.00 0.00 0.00 30 1008.6
20260505121203 79 230 14.0 30.0 0.00 0.00 0.00 30 1008.7
20260505121003 79 222 16.0 30.0 0.00 0.00 0.00 31 1008.7
20260505120603 79 220 17.0 30.0 0.00 0.00 0.00 31 1008.7
20260505120403 79 219 17.0 30.0 0.00 0.00 0.00 30 1008.5
20260505120203 80 223 16.0 30.0 0.00 0.00 0.00 30 1009.0
20260505115803 79 222 16.0 28.0 0.00 0.00 0.00 31 1008.7
20260505115603 79 227 15.0 28.0 0.00 0.00 0.00 30 1008.7
20260505115403 79 234 15.0 28.0 0.00 0.00 0.00 30 1008.8
20260505115203 79 234 15.0 28.0 0.00 0.00 0.00 30 1008.6
20260505114404 79 232 15.0 26.0 0.00 0.00 0.00 28 1008.7
20260505114203 79 228 14.0 26.0 0.00 0.00 0.00 27 1008.8
20260505114003 80 229 15.0 24.0 0.00 0.00 0.00 27 1008.7
20260505113803 79 234 14.0 24.0 0.00 0.00 0.00 28 1008.7
20260505113403 79 238 14.0 26.0 0.00 0.00 0.00 27 1008.9
20260505113203 79 239 14.0 26.0 0.00 0.00 0.00 27 1008.8
20260505113003 79 240 14.0 26.0 0.00 0.00 0.00 28 1009.0
20260505112803 79 236 13.0 26.0 0.00 0.00 0.00 27 1008.8
20260505112403 79 228 13.0 23.0 0.00 0.00 0.00 27 1009.1
20260505112208 79 222 13.0 23.0 0.00 0.00 0.00 27 1008.9
20260505112009 79 220 13.0 23.0 0.00 0.00 0.00 27 1009.1
20260505111805 79 224 14.0 23.0 0.00 0.00 0.00 27 1009.0
20260505111603 79 218 15.0 23.0 0.00 0.00 0.00 27 1009.0
20260505111403 78 215 15.0 23.0 0.00 0.00 0.00 27 1008.9
20260505111206 78 212 14.0 24.0 0.00 0.00 0.00 27 1009.1
20260505111003 78 219 15.0 24.0 0.00 0.00 0.00 28 1009.2
20260505110604 78 223 14.0 24.0 0.00 0.00 0.00 28 1009.3
20260505110403 78 222 14.0 24.0 0.00 0.00 0.00 27 1009.3
20260505110203 78 228 15.0 24.0 0.00 0.00 0.00 27 1009.2
20260505102203 74 211 13.0 25.0 0.00 0.00 0.00 34 1009.8
20260505102013 74 204 13.0 25.0 0.00 0.00 0.00 34 1009.8
20260505101822 73 212 13.0 25.0 0.00 0.00 0.00 35 1009.9
20260505101609 73 216 12.0 25.0 0.00 0.00 0.00 36 1009.8
20260505101204 73 225 10.0 21.0 0.00 0.00 0.00 37 1009.9
20260505101003 73 226 11.0 21.0 0.00 0.00 0.00 37 1009.9
20260505100803 73 224 11.0 24.0 0.00 0.00 0.00 37 1010.1
20260505100608 73 216 12.0 24.0 0.00 0.00 0.00 37 1009.9
20260505100406 73 221 12.0 24.0 0.00 0.00 0.00 37 1010.1
20260505100004 73 215 13.0 24.0 0.00 0.00 0.00 36 1010.0
20260505095804 74 216 13.0 24.0 0.00 0.00 0.00 36 1010.1
20260505095606 73 218 13.0 23.0 0.00 0.00 0.00 37 1010.1
20260505095403 73 215 13.0 23.0 0.00 0.00 0.00 37 1010.1
20260505095216 73 211 13.0 23.0 0.00 0.00 0.00 37 1010.1
20260505094805 72 218 12.0 23.0 0.00 0.00 0.00 38 1010.1
20260505094403 72 215 11.0 23.0 0.00 0.00 0.00 38 1009.9
20260505094204 72 217 11.0 23.0 0.00 0.00 0.00 39 1009.9
20260505093805 71 219 11.0 20.0 0.00 0.00 0.00 40 1010.1
20260505093603 71 221 13.0 22.0 0.00 0.00 0.00 40 1010.0
20260505093408 71 221 13.0 22.0 0.00 0.00 0.00 40 1010.0
20260505093204 71 221 13.0 22.0 0.00 0.00 0.00 40 1010.1
20260505093003 71 216 14.0 22.0 0.00 0.00 0.00 40 1010.2
20260505092804 71 211 14.0 22.0 0.00 0.00 0.00 40 1010.0
20260505092603 71 212 14.0 22.0 0.00 0.00 0.00 40 1010.2
20260505092404 70 210 13.0 20.0 0.00 0.00 0.00 40 1010.1
20260505092203 70 215 13.0 20.0 0.00 0.00 0.00 40 1010.0
20260505092003 70 216 13.0 20.0 0.00 0.00 0.00 40 1010.1
20260505091804 71 217 12.0 20.0 0.00 0.00 0.00 40 1010.2
20260505091603 70 224 12.0 21.0 0.00 0.00 0.00 40 1010.2
20260505091406 71 224 12.0 25.0 0.00 0.00 0.00 39 1010.1
20260505091205 71 220 13.0 25.0 0.00 0.00 0.00 39 1010.3
20260505091004 70 218 13.0 25.0 0.00 0.00 0.00 39 1010.2
20260505090808 70 220 13.0 25.0 0.00 0.00 0.00 38 1010.2
20260505090605 70 218 13.0 25.0 0.00 0.00 0.00 39 1010.3
20260505090404 70 220 13.0 25.0 0.00 0.00 0.00 38 1010.1
20260505090003 70 216 12.0 24.0 0.00 0.00 0.00 39 1010.2
20260505085803 70 213 12.0 24.0 0.00 0.00 0.00 39 1010.3
20260505085608 70 209 12.0 24.0 0.00 0.00 0.00 39 1010.1
20260505085403 70 210 12.0 25.0 0.00 0.00 0.00 38 1010.1
20260505085208 70 212 13.0 25.0 0.00 0.00 0.00 39 1010.0
20260505085004 70 209 13.0 25.0 0.00 0.00 0.00 39 1010.2
20260505084809 70 211 14.0 25.0 0.00 0.00 0.00 39 1010.2
20260505084609 70 211 14.0 25.0 0.00 0.00 0.00 39 1010.2
20260505084408 70 211 15.0 25.0 0.00 0.00 0.00 39 1010.2
20260505084215 70 210 15.0 26.0 0.00 0.00 0.00 38 1010.2
20260505084007 70 213 15.0 26.0 0.00 0.00 0.00 38 1010.2
20260505083808 70 214 15.0 26.0 0.00 0.00 0.00 38 1010.2
20260505083603 69 214 15.0 26.0 0.00 0.00 0.00 38 1010.1
20260505083403 70 211 16.0 26.0 0.00 0.00 0.00 38 1010.3
20260505083003 70 209 16.0 23.0 0.00 0.00 0.00 39 1010.1
20260505082804 69 209 16.0 23.0 0.00 0.00 0.00 39 1010.2
20260505082611 70 207 15.0 23.0 0.00 0.00 0.00 39 1010.3
20260505082409 70 212 15.0 21.0 0.00 0.00 0.00 39 1010.3
20260505082208 70 210 14.0 21.0 0.00 0.00 0.00 39 1010.0
20260505082003 71 218 15.0 21.0 0.00 0.00 0.00 38 1010.1
20260505081803 70 218 14.0 21.0 0.00 0.00 0.00 38 1010.1
20260505081603 71 216 14.0 21.0 0.00 0.00 0.00 38 1010.0
20260505081403 71 212 14.0 21.0 0.00 0.00 0.00 38 1010.2
20260505081203 71 212 13.0 21.0 0.00 0.00 0.00 38 1010.1
20260505081003 71 208 13.0 21.0 0.00 0.00 0.00 39 1009.9
20260505080803 70 209 12.0 20.0 0.00 0.00 0.00 39 1010.0
20260505080603 70 212 13.0 20.0 0.00 0.00 0.00 40 1010.2
20260505080403 70 211 12.0 20.0 0.00 0.00 0.00 40 1010.2
20260505080203 70 219 13.0 22.0 0.00 0.00 0.00 40 1010.2
20260505080003 69 217 13.0 22.0 0.00 0.00 0.00 40 1010.2
20260505075603 69 218 12.0 22.0 0.00 0.00 0.00 39 1010.2
20260505075403 69 219 12.0 22.0 0.00 0.00 0.00 39 1010.1
20260505075203 69 214 12.0 22.0 0.00 0.00 0.00 39 1010.3
20260505075003 69 215 12.0 20.0 0.00 0.00 0.00 39 1010.1
20260505074803 69 213 11.0 20.0 0.00 0.00 0.00 40 1010.4
20260505074403 68 211 10.0 21.0 0.00 0.00 0.00 41 1010.2
20260505074203 68 215 11.0 21.0 0.00 0.00 0.00 42 1010.1
20260505074003 68 213 11.0 21.0 0.00 0.00 0.00 42 1010.4
20260505073603 68 219 12.0 21.0 0.00 0.00 0.00 43 1010.4
20260505073403 68 218 12.0 21.0 0.00 0.00 0.00 42 1010.3
20260505073203 68 208 12.0 23.0 0.00 0.00 0.00 42 1010.3
20260505073003 68 212 11.0 23.0 0.00 0.00 0.00 42 1010.3
20260505072803 67 213 10.0 23.0 0.00 0.00 0.00 43 1010.3
20260505072203 67 225 9.0 23.0 0.00 0.00 0.00 44 1010.5
20260505072003 67 228 8.0 17.0 0.00 0.00 0.00 44 1010.5
20260505071603 67 226 8.0 17.0 0.00 0.00 0.00 44 1010.4
20260505071203 66 222 9.0 19.0 0.00 0.00 0.00 47 1010.6
20260505071003 65 217 10.0 21.0 0.00 0.00 0.00 47 1010.4
20260505070803 65 219 11.0 21.0 0.00 0.00 0.00 47 1010.5
20260505070603 65 216 11.0 21.0 0.00 0.00 0.00 47 1010.5
20260505070403 65 216 12.0 21.0 0.00 0.00 0.00 47 1010.6
20260505070203 65 212 12.0 21.0 0.00 0.00 0.00 47 1010.5
20260505070003 65 216 12.0 21.0 0.00 0.00 0.00 48 1010.6
20260505065803 65 206 12.0 20.0 0.00 0.00 0.00 48 1010.4
20260505065603 64 207 12.0 20.0 0.00 0.00 0.00 48 1010.7
20260505065403 64 207 11.0 20.0 0.00 0.00 0.00 48 1010.4
20260505065203 64 211 10.0 21.0 0.00 0.00 0.00 49 1010.5
20260505065003 64 207 11.0 21.0 0.00 0.00 0.00 49 1010.5
20260505064803 63 210 11.0 21.0 0.00 0.00 0.00 50 1010.5
20260505064603 63 211 11.0 21.0 0.00 0.00 0.00 50 1010.4
20260505064403 63 210 10.0 21.0 0.00 0.00 0.00 50 1010.5
20260505064203 62 207 11.0 21.0 0.00 0.00 0.00 51 1010.7
20260505064003 62 207 11.0 19.0 0.00 0.00 0.00 51 1010.6
20260505063803 62 208 11.0 19.0 0.00 0.00 0.00 51 1010.6
20260505063603 62 204 11.0 19.0 0.00 0.00 0.00 52 1010.6
20260505063403 61 208 11.0 19.0 0.00 0.00 0.00 52 1010.4
20260505063203 61 209 12.0 19.0 0.00 0.00 0.00 52 1010.5
20260505063003 61 207 12.0 19.0 0.00 0.00 0.00 52 1010.5
20260505062803 61 208 12.0 19.0 0.00 0.00 0.00 52 1010.4
20260505062403 61 205 11.0 20.0 0.00 0.00 0.00 52 1010.6
20260505062203 61 200 11.0 21.0 0.00 0.00 0.00 52 1010.6
20260505062003 61 199 12.0 21.0 0.00 0.00 0.00 52 1010.5
20260505061803 61 197 12.0 21.0 0.00 0.00 0.00 53 1010.6
20260505061203 60 206 13.0 21.0 0.00 0.00 0.00 53 1010.5
20260505061003 60 205 13.0 21.0 0.00 0.00 0.00 53 1010.5
20260505060803 60 205 13.0 23.0 0.00 0.00 0.00 54 1010.6
20260505060603 60 206 14.0 23.0 0.00 0.00 0.00 54 1010.7
20260505060403 60 206 14.0 23.0 0.00 0.00 0.00 54 1010.7
20260505060203 60 206 14.0 23.0 0.00 0.00 0.00 54 1010.7
20260505060003 60 209 15.0 25.0 0.00 0.00 0.00 54 1010.5
20260505055803 60 210 15.0 25.0 0.00 0.00 0.00 54 1010.7
20260505055603 60 211 14.0 25.0 0.00 0.00 0.00 55 1010.3
20260505055403 60 209 14.0 25.0 0.00 0.00 0.00 55 1010.5
20260505055203 60 209 14.0 25.0 0.00 0.00 0.00 55 1010.7
20260505055003 59 210 13.0 25.0 0.00 0.00 0.00 56 1010.7
20260505054803 59 211 12.0 21.0 0.00 0.00 0.00 56 1010.5
20260505054603 59 209 13.0 21.0 0.00 0.00 0.00 57 1010.5
20260505054403 58 209 13.0 21.0 0.00 0.00 0.00 57 1010.5
20260505054203 58 210 13.0 20.0 0.00 0.00 0.00 58 1010.5
20260505053803 57 208 13.0 19.0 0.00 0.00 0.00 59 1010.4
20260505053603 57 209 13.0 19.0 0.00 0.00 0.00 59 1010.5
20260505053403 57 209 12.0 19.0 0.00 0.00 0.00 59 1010.3
20260505053203 57 209 12.0 19.0 0.00 0.00 0.00 59 1010.3
20260505053003 57 210 12.0 19.0 0.00 0.00 0.00 59 1010.4
20260505052803 57 209 11.0 19.0 0.00 0.00 0.00 59 1010.5
20260505052603 57 207 11.0 19.0 0.00 0.00 0.00 59 1010.6
20260505052403 57 207 12.0 19.0 0.00 0.00 0.00 59 1010.5
20260505052203 57 206 12.0 19.0 0.00 0.00 0.00 59 1010.4
20260505051803 57 205 11.0 18.0 0.00 0.00 0.00 59 1010.4
20260505051603 57 206 11.0 17.0 0.00 0.00 0.00 59 1010.5
20260505051403 57 205 11.0 17.0 0.00 0.00 0.00 60 1010.5
20260505051203 57 205 12.0 17.0 0.00 0.00 0.00 60 1010.4
20260505051003 57 205 11.0 21.0 0.00 0.00 0.00 60 1010.5
20260505050803 57 205 11.0 21.0 0.00 0.00 0.00 60 1010.6
20260505050403 56 208 11.0 21.0 0.00 0.00 0.00 60 1010.3
20260505050203 57 210 11.0 21.0 0.00 0.00 0.00 60 1010.4
20260505041603 53 228 5.0 9.0 0.00 0.00 0.00 65 1010.6
20260505041203 53 232 4.0 10.0 0.00 0.00 0.00 65 1010.7
20260505041003 53 233 4.0 12.0 0.00 0.00 0.00 65 1010.5
20260505040803 53 230 5.0 13.0 0.00 0.00 0.00 65 1010.7
20260505040603 54 229 5.0 13.0 0.00 0.00 0.00 65 1010.9
20260505040403 54 228 5.0 13.0 0.00 0.00 0.00 65 1010.7
20260505040203 54 230 5.0 13.0 0.00 0.00 0.00 65 1010.7
20260505040004 54 228 5.0 13.0 0.00 0.00 0.00 64 1010.5
20260505035803 54 225 5.0 13.0 0.00 0.00 0.00 64 1010.6
20260505035603 54 227 4.0 13.0 0.00 0.00 0.00 64 1010.6
20260505035403 54 226 5.0 13.0 0.00 0.00 0.00 64 1010.7
20260505035203 54 226 5.0 13.0 0.00 0.00 0.00 64 1010.8
20260505035003 54 224 5.0 13.0 0.00 0.00 0.00 64 1010.5
20260505034803 54 223 6.0 12.0 0.00 0.00 0.00 64 1010.5
20260505034403 54 218 7.0 11.0 0.00 0.00 0.00 63 1010.6
20260505034203 54 218 7.0 11.0 0.00 0.00 0.00 63 1010.6
20260505034003 54 216 7.0 12.0 0.00 0.00 0.00 63 1010.7
20260505033803 54 219 7.0 12.0 0.00 0.00 0.00 63 1010.6
20260505033603 54 221 7.0 12.0 0.00 0.00 0.00 63 1010.6
20260505033403 54 221 6.0 12.0 0.00 0.00 0.00 62 1010.6
20260505033203 54 226 6.0 12.0 0.00 0.00 0.00 62 1010.6
20260505033003 54 231 6.0 12.0 0.00 0.00 0.00 62 1010.6
20260505032803 54 234 5.0 11.0 0.00 0.00 0.00 62 1010.6
20260505032603 54 229 5.0 11.0 0.00 0.00 0.00 62 1010.7
20260505032403 55 227 5.0 10.0 0.00 0.00 0.00 62 1010.4
20260505032203 55 220 5.0 10.0 0.00 0.00 0.00 62 1010.7
20260505031803 55 216 5.0 11.0 0.00 0.00 0.00 61 1010.6
20260505031603 55 224 6.0 11.0 0.00 0.00 0.00 61 1010.7
20260505031403 55 224 6.0 11.0 0.00 0.00 0.00 60 1010.8
20260505031203 56 222 6.0 11.0 0.00 0.00 0.00 60 1010.7
20260505031003 56 224 6.0 13.0 0.00 0.00 0.00 60 1010.6
20260505030603 56 216 7.0 13.0 0.00 0.00 0.00 60 1010.8
20260505030403 56 213 7.0 13.0 0.00 0.00 0.00 60 1010.5
20260505030203 56 216 8.0 13.0 0.00 0.00 0.00 60 1010.6
20260505025603 56 214 8.0 15.0 0.00 0.00 0.00 59 1010.5
20260505025403 56 221 8.0 15.0 0.00 0.00 0.00 59 1010.6
20260505025203 56 216 8.0 15.0 0.00 0.00 0.00 59 1010.6
20260505025003 56 214 8.0 15.0 0.00 0.00 0.00 58 1010.5
20260505024603 56 218 9.0 15.0 0.00 0.00 0.00 58 1010.7
20260505024403 56 214 8.0 15.0 0.00 0.00 0.00 58 1010.7
20260505024203 56 216 8.0 14.0 0.00 0.00 0.00 58 1010.8
20260505024003 56 215 8.0 14.0 0.00 0.00 0.00 58 1010.7
20260505023803 56 220 7.0 14.0 0.00 0.00 0.00 58 1010.8
20260505023603 56 220 6.0 14.0 0.00 0.00 0.00 58 1010.7
20260505023403 56 224 6.0 14.0 0.00 0.00 0.00 58 1010.7
20260505023203 56 225 6.0 14.0 0.00 0.00 0.00 58 1010.8
20260505023003 56 230 6.0 12.0 0.00 0.00 0.00 58 1010.9
20260505022803 56 223 6.0 12.0 0.00 0.00 0.00 58 1010.8
20260505022603 56 224 6.0 12.0 0.00 0.00 0.00 58 1010.6
20260505022403 56 221 7.0 12.0 0.00 0.00 0.00 58 1010.9
20260505022203 56 218 6.0 12.0 0.00 0.00 0.00 58 1011.0
20260505022003 56 220 6.0 12.0 0.00 0.00 0.00 57 1010.8
20260505021803 56 229 5.0 12.0 0.00 0.00 0.00 57 1010.9
20260505021603 56 216 5.0 12.0 0.00 0.00 0.00 58 1010.9
20260505021403 56 218 5.0 11.0 0.00 0.00 0.00 58 1011.0
20260505021203 56 222 4.0 11.0 0.00 0.00 0.00 58 1011.1
20260505021003 56 221 4.0 11.0 0.00 0.00 0.00 58 1011.0
20260505020803 56 215 4.0 11.0 0.00 0.00 0.00 58 1010.9
20260505020603 56 227 4.0 8.0 0.00 0.00 0.00 58 1011.1
20260505020403 56 227 3.0 8.0 0.00 0.00 0.00 58 1011.0
20260505020203 56 233 3.0 7.0 0.00 0.00 0.00 58 1010.8
20260505020003 56 232 3.0 7.0 0.00 0.00 0.00 58 1011.0
20260505015803 56 236 3.0 7.0 0.00 0.00 0.00 58 1011.1
20260505015603 56 239 2.0 7.0 0.00 0.00 0.00 58 1011.0
20260505015403 56 243 2.0 7.0 0.00 0.00 0.00 58 1011.2
20260505015203 56 235 2.0 7.0 0.00 0.00 0.00 58 1011.2
20260505014803 56 220 2.0 5.0 0.00 0.00 0.00 58 1011.1
20260505014603 56 218 2.0 5.0 0.00 0.00 0.00 57 1011.0
20260505014203 56 218 2.0 5.0 0.00 0.00 0.00 57 1011.1
20260505014003 56 216 2.0 5.0 0.00 0.00 0.00 57 1011.2
20260505013803 56 225 2.0 5.0 0.00 0.00 0.00 57 1011.2
20260505013603 56 229 3.0 6.0 0.00 0.00 0.00 57 1011.1
20260505013403 56 230 3.0 6.0 0.00 0.00 0.00 57 1011.3
20260505013003 56 243 3.0 6.0 0.00 0.00 0.00 56 1011.1
20260505012803 56 247 3.0 6.0 0.00 0.00 0.00 56 1011.1
20260505012603 57 249 3.0 6.0 0.00 0.00 0.00 56 1011.2
20260505012403 57 247 3.0 5.0 0.00 0.00 0.00 55 1011.2
20260505012203 57 241 3.0 5.0 0.00 0.00 0.00 55 1011.2
20260505011603 57 229 2.0 5.0 0.00 0.00 0.00 55 1011.3
20260505011403 57 229 2.0 6.0 0.00 0.00 0.00 55 1011.2
20260505011203 57 225 1.0 6.0 0.00 0.00 0.00 55 1011.2
20260505011003 57 228 2.0 6.0 0.00 0.00 0.00 55 1011.2
20260505010803 57 214 2.0 6.0 0.00 0.00 0.00 55 1011.1
20260505010603 57 212 2.0 6.0 0.00 0.00 0.00 55 1011.4
20260505010403 57 209 3.0 6.0 0.00 0.00 0.00 54 1011.4
20260505010203 57 216 3.0 7.0 0.00 0.00 0.00 54 1011.4
20260505010003 57 220 3.0 7.0 0.00 0.00 0.00 54 1011.3
20260505005803 57 224 3.0 7.0 0.00 0.00 0.00 54 1011.2
20260505005603 57 222 3.0 7.0 0.00 0.00 0.00 54 1011.3
20260505005403 57 226 3.0 7.0 0.00 0.00 0.00 54 1011.3
20260505005203 57 223 2.0 7.0 0.00 0.00 0.00 54 1011.4
20260505005004 57 216 2.0 5.0 0.00 0.00 0.00 54 1011.5
20260505004803 57 220 2.0 5.0 0.00 0.00 0.00 54 1011.4
20260505004603 57 215 2.0 5.0 0.00 0.00 0.00 54 1011.3
20260505004403 57 209 2.0 5.0 0.00 0.00 0.00 54 1011.4
20260505004203 57 206 2.0 5.0 0.00 0.00 0.00 54 1011.4
20260505003403 57 240 2.0 5.0 0.00 0.00 0.00 53 1011.5
20260505003203 57 242 2.0 5.0 0.00 0.00 0.00 53 1011.5
20260505003003 57 234 2.0 5.0 0.00 0.00 0.00 53 1011.6
20260505002803 57 235 2.0 6.0 0.00 0.00 0.00 53 1011.6